TimeMDT,TemperatureF,Dew PointF,Humidity,Sea Level PressureIn,VisibilityMPH,Wind Direction,Wind SpeedMPH,Gust SpeedMPH,PrecipitationIn,Events,Conditions,WindDirDegrees,DateUTC
12:53 AM,23.0,12.0,63,30.30,10.0,Calm,Calm,-,N/A,,Clear,0,2013-03-20 06:53:00
1:53 AM,21.9,12.9,68,30.28,10.0,Calm,Calm,-,N/A,,Clear,0,2013-03-20 07:53:00
2:53 AM,21.9,10.9,63,30.27,10.0,Calm,Calm,-,N/A,,Clear,0,2013-03-20 08:53:00
3:53 AM,19.9,12.9,74,30.26,10.0,Calm,Calm,-,N/A,,Clear,0,2013-03-20 09:53:00
4:53 AM,21.0,12.9,71,30.23,10.0,Calm,Calm,-,N/A,,Clear,0,2013-03-20 10:53:00
5:53 AM,21.0,12.0,68,30.23,10.0,Calm,Calm,-,N/A,,Clear,0,2013-03-20 11:53:00
6:53 AM,21.9,12.0,66,30.24,10.0,Calm,Calm,-,N/A,,Clear,0,2013-03-20 12:53:00
7:53 AM,23.0,14.0,68,30.26,10.0,Calm,Calm,-,N/A,,Clear,0,2013-03-20 13:53:00
8:53 AM,26.1,15.1,63,30.24,10.0,West,3.5,-,N/A,,Clear,280,2013-03-20 14:53:00
9:53 AM,30.0,14.0,51,30.22,10.0,SW,3.5,-,N/A,,Clear,220,2013-03-20 15:53:00
10:53 AM,37.0,10.9,34,30.15,10.0,ENE,13.8,-,N/A,,Clear,70,2013-03-20 16:53:00
11:53 AM,39.9,12.0,32,30.11,10.0,ENE,9.2,-,N/A,,Clear,70,2013-03-20 17:53:00
12:53 PM,41.0,12.0,31,30.09,10.0,ENE,8.1,-,N/A,,Overcast,60,2013-03-20 18:53:00
1:53 PM,43.0,17.1,35,30.04,10.0,ENE,4.6,-,N/A,,Overcast,60,2013-03-20 19:53:00
2:53 PM,45.0,19.9,37,30.00,10.0,ENE,5.8,-,N/A,,Overcast,70,2013-03-20 20:53:00
3:53 PM,46.9,21.9,37,29.96,10.0,Variable,6.9,26.5,N/A,,Overcast,0,2013-03-20 21:53:00
4:53 PM,46.9,19.9,34,29.96,10.0,NW,4.6,-,N/A,,Overcast,320,2013-03-20 22:53:00
5:53 PM,42.1,27.0,55,29.97,10.0,SSE,3.5,-,N/A,,Overcast,150,2013-03-20 23:53:00
6:53 PM,46.0,23.0,40,29.93,10.0,SSW,13.8,21.9,N/A,,Overcast,200,2013-03-21 00:53:00
7:53 PM,39.9,27.0,60,29.94,10.0,Calm,Calm,-,N/A,,Overcast,0,2013-03-21 01:53:00
8:53 PM,39.0,26.1,60,29.93,10.0,Calm,Calm,-,N/A,,Overcast,0,2013-03-21 02:53:00
9:53 PM,43.0,25.0,49,29.88,10.0,Calm,Calm,-,N/A,,Overcast,0,2013-03-21 03:53:00
10:53 PM,43.0,26.1,51,29.84,10.0,Calm,Calm,-,N/A,,Overcast,0,2013-03-21 04:53:00
11:53 PM,39.2,28.4,65,29.86,10.0,ENE,10.4,-,N/A,,Overcast,70,2013-03-21 05:53:00